Santa Rosa, CA

6:50 PM PDT on May 27, 2017 (GMT -0700)
Sonoma County

Weather History for KSTS - July, 2013

Change the Weather History Date:

Wednesday, July 3, 2013

  Actual Average Record
Temperature  
Mean Temperature 73 °F 68 °F  
Max Temperature 88 °F 84 °F 103 °F (2001)
Min Temperature 57 °F 52 °F 46 °F (2000)
Degree Days  
Heating Degree Days 0    
Month to date heating degree days 0  
Since 1 June heating degree days 37  
Since 1 July heating degree days 0  
Cooling Degree Days 8    
Month to date cooling degree days 29  
Year to date cooling degree days 184  
Since 1 June cooling degree days 129  
Growing Degree Days 22 (Base 50)    
Moisture  
Dew Point 57 °F    
Average Humidity 67    
Maximum Humidity 93    
Minimum Humidity 40    
Precipitation  
Precipitation 0.00 in 0.00 in 0.00 in (2017)
Month to date precipitation 0.00 0.00  
Year to date precipitation 6.52 22.09  
Since 1 July precipitation 0.00  
Sea Level Pressure  
Sea Level Pressure 29.82 in    
Wind  
Wind Speed 5 mph (South)    
Max Wind Speed 15 mph    
Max Gust Speed 20 mph    
Visibility 10 miles    
Events      
T = Trace of Precipitation, MM = Missing Value Source: NWS Daily Summary

Daily Weather History Graph

Daily Weather History Graph

Search for Another Location

Airport or City:

Trip Planner

Search our weather history database for the weather conditions in past years. The results will help you decide how hot, cold, wet, or windy it might be!

Date:

Astronomy

Jul. 03, 2013 Rise Set
Actual Time 5:51 AM PDT 8:38 PM PDT
Civil Twilight 5:20 AM PDT 9:10 PM PDT
Nautical Twilight 4:40 AM PDT 9:50 PM PDT
Astronomical Twilight 3:55 AM PDT 10:34 PM PDT
Moon 2:31 AM PDT (7/3) 4:55 PM PDT (7/3)
Length of Visible Light 15h 50m
Length of Day
14h 47m
Waning Crescent, 17% of the Moon is Illuminated
Jul 3
Waning Crescent
Jul 8
New
Jul 15
First Quarter
Jul 22
Full
Jul 29
Last Quarter

Hourly Weather History & Observations

Time (PDT) Temp. Heat Index Dew Point Humidity Pressure Visibility Wind Dir Wind Speed Gust Speed Precip Events Conditions
12:53 AM 59.0 °F - 55.0 °F 87% 29.89 in 10.0 mi Calm Calm - N/A   Haze
1:51 AM 57.2 °F - 55.4 °F 94% 29.90 in 10.0 mi WSW 3.5 mph - N/A   Haze
1:53 AM 57.9 °F - 55.0 °F 90% 29.88 in 10.0 mi Calm Calm - N/A   Haze
2:53 AM 57.0 °F - 55.0 °F 93% 29.87 in 10.0 mi Calm Calm - N/A   Haze
3:53 AM 57.9 °F - 55.0 °F 90% 29.86 in 10.0 mi Calm Calm - N/A   Haze
4:53 AM 57.0 °F - 55.0 °F 93% 29.86 in 10.0 mi Calm Calm - N/A   Haze
5:53 AM 59.0 °F - 55.9 °F 90% 29.87 in 10.0 mi Calm Calm - N/A   Haze
6:53 AM 59.0 °F - 57.0 °F 93% 29.87 in 10.0 mi Calm Calm - N/A   Clear
7:53 AM 63.0 °F - 57.0 °F 81% 29.87 in 10.0 mi Calm Calm - N/A   Clear
8:53 AM 69.1 °F - 57.0 °F 65% 29.87 in 10.0 mi Calm Calm - N/A   Clear
9:53 AM 73.0 °F - 57.9 °F 59% 29.86 in 10.0 mi Variable 3.5 mph - N/A   Scattered Clouds
10:53 AM 79.0 °F - 60.1 °F 52% 29.83 in 10.0 mi Calm Calm - N/A   Scattered Clouds
11:53 AM 82.0 °F 82.7 °F 61.0 °F 49% 29.82 in 10.0 mi SSW 5.8 mph - N/A   Scattered Clouds
12:53 PM 82.9 °F 82.8 °F 59.0 °F 44% 29.81 in 10.0 mi South 11.5 mph - N/A   Scattered Clouds
1:53 PM 84.9 °F 84.4 °F 59.0 °F 41% 29.81 in 10.0 mi South 9.2 mph - N/A   Scattered Clouds
2:53 PM 84.9 °F 84.8 °F 60.1 °F 43% 29.80 in 10.0 mi South 12.7 mph - N/A   Scattered Clouds
3:53 PM 84.9 °F 84.4 °F 59.0 °F 41% 29.78 in 10.0 mi South 11.5 mph - N/A   Clear
4:53 PM 87.1 °F 86.7 °F 60.1 °F 40% 29.75 in 10.0 mi SE 9.2 mph - N/A   Scattered Clouds
5:53 PM 79.0 °F - 59.0 °F 50% 29.73 in 10.0 mi South 10.4 mph - N/A   Scattered Clouds
6:53 PM 75.9 °F - 57.0 °F 52% 29.75 in 10.0 mi South 9.2 mph - N/A   Scattered Clouds
7:53 PM 70.0 °F - 55.0 °F 59% 29.76 in 10.0 mi South 8.1 mph - N/A   Scattered Clouds
8:53 PM 68.0 °F - 55.9 °F 65% 29.75 in 10.0 mi SSE 4.6 mph - N/A   Clear
9:53 PM 66.9 °F - 55.9 °F 68% 29.76 in 10.0 mi SE 4.6 mph - N/A   Clear
10:53 PM 64.9 °F - 55.9 °F 73% 29.77 in 10.0 mi South 8.1 mph - N/A   Clear
11:53 PM 64.0 °F - 55.9 °F 75% 29.79 in 10.0 mi Calm Calm - N/A   Clear